CAPE
902 859 1084 962 969 928 1071 1223 1184 1153 1217 1343 1506 1620 1809 2164 2240 2455 2783 2880 2817 2827 2830 2758 2704 2468 2708 2671 2659 2563 2804 2701 2785 2798 2654 2671 2532 2359 2474 2807 2979 2853
1291 1231 1534 1211 1013 1184 1008 1226 1486 1410 1340 1416 1591 1642 1694 2000 2288 2392 2644 2874 2900 2828 2553 2600 2619 2478 2559 2922 2846 2337 2511 2723 2788 3629 2746 2656 2823 2980 3098 3195 3204 3119
961 1478 1674 1450 1269 1221 1112 1144 1567 1566 1509 1472 1662 1787 1727 1936 2152 2374 2472 2681 2796 2747 2513 2477 2530 2514 2338 2823 3179 2591 2204 2336 2465 2538 2628 2650 2518 2630 3035 3146 3180 3324
894 1020 1551 1831 1522 1353 1319 1290 1409 1699 1649 1586 1715 1884 1904 2101 2096 2133 2225 2869 2482 2562 2534 2504 2521 2462 2171 2357 2934 2958 2660 2397 2433 2620 2496 2676 2840 2931 2720 2976 3439 3294
1015 959 1176 1728 1827 1646 1601 1389 1418 1552 1758 1692 1704 1808 1869 2081 2240 2154 2127 2205 2355 2414 2460 2428 2419 2335 2222 2341 2728 2868 2854 2664 2684 2987 2956 2861 2782 2582 2662 3329 3429 3367
1144 1074 1118 1345 1714 1819 1881 1673 1474 1467 1490 1691 1782 1789 1837 1918 2168 2223 2209 2193 2255 2290 2354 2417 2400 2355 2364 2572 2777 2925 2977 2865 2737 2745 2891 2940 2783 2536 2546 2950 3122 3228
1382 1357 1298 1312 1468 1702 1862 1944 1804 1621 1483 1323 1498 1653 1804 1803 1874 2095 2150 2150 2224 2200 2219 2440 2534 2507 2435 2666 2895 3009 3020 2956 2931 2900 2810 2750 2642 2436 2404 2783 3036 3127
1588 1587 1558 1500 1470 1488 1629 1815 1951 1919 1812 1690 1607 1726 1520 1642 1664 1792 1966 2047 2164 2245 2168 2231 2460 2534 2560 2633 2782 2912 2938 2953 2957 2946 2880 2764 2692 2450 2326 2510 2753 2847
1584 1634 1628 1602 1578 1521 1481 1516 1604 1713 1820 1871 1729 1812 1617 1494 1445 1551 1706 1839 1978 2130 2150 2123 2214 2345 2444 2544 2658 2699 2719 2781 2844 2874 2794 2687 2572 2421 2378 2462 2590 2592
1520 1566 1617 1626 1628 1609 1564 1502 1456 1438 1457 1507 1565 1652 1717 1561 1436 1451 1458 1622 1767 1893 1962 2016 2067 2151 2253 2334 2423 2438 2455 2480 2554 2634 2625 2540 2396 2347 2381 2402 2407 2354
1550 1557 1553 1576 1590 1623 1644 1630 1578 1502 1389 1404 1426 1471 1548 1586 1528 1372 1271 1383 1557 1701 1804 1855 1940 2025 2108 2193 2252 2271 2257 2280 2301 2296 2306 2319 2308 2333 2600 2275 2283 2326
1538 1534 1526 1563 1560 1528 1533 1600 1632 1624 1573 1477 1399 1458 1506 1522 1514 1407 1256 1238 1382 1534 1660 1776 1868 1951 1988 1995 2044 2099 2106 2142 2156 2138 2107 2048 2036 2045 2061 2129 2262 2316
1659 1484 1317 1362 1398 1399 1417 1486 1536 1565 1529 1467 1378 1330 1376 1433 1423 1369 1310 1232 1243 1380 1505 1626 1711 1754 1746 1778 1849 1855 1833 1851 1910 1947 1946 1938 1919 1898 1863 1902 2028 2144
1790 1790 1752 1560 1314 1282 1280 1289 1389 1481 1517 1459 1326 1218 1141 1188 1195 1121 1130 1180 1201 1191 1381 1475 1537 1564 1571 1604 1624 1616 1632 1655 1702 1755 1785 1806 1808 1780 1745 1730 1795 1876
1706 1750 1747 1740 1718 1603 1460 1390 1358 1366 1371 1380 1319 1173 1030 1084 1051 968 829 873 953 1024 1092 1294 1417 1463 1498 1512 1509 1520 1532 1564 1601 1647 1706 1727 1709 1676 1654 1641 1621 1602
1560 1630 1779 1842 1804 1708 1621 1722 1733 1606 1424 1332 1340 1279 1222 1281 1149 958 945 826 785 867 929 979 1061 1246 1438 1438 1461 1485 1484 1522 1532 1531 1586 1645 1645 1620 1621 1616 1588 1542
1058 1102 1150 1317 1448 1543 1521 1440 1549 1698 1727 1652 1565 1502 1406 1218 1391 993 966 869 760 709 801 857 880 926 1017 1254 1431 1517 1547 1522 1481 1472 1464 1455 1449 1479 1484 1443 1388 1367
798 902 954 1098 1167 1243 1265 1327 1511 1541 1530 1558 1584 1578 1503 1343 1042 1139 1038 958 866 757 745 824 882 870 887 894 994 1159 1347 1465 1463 1433 1396 1354 1345 1356 1370 1390 1429 1436
887 938 1014 1103 1107 1097 1109 1216 1351 1378 1360 1307 1506 1877 1945 1719 1574 1382 1272 1322 1218 900 774 738 883 1006 1021 983 965 986 1018 1086 1229 1320 1331 1320 1332 1345 1357 1367 1358 1327
750 842 898 987 1059 1135 1163 1112 1080 1139 1188 1191 1283 1619 1904 1957 1853 1710 1602 1481 1356 1180 1041 940 817 833 935 1069 1146 1177 1190 1194 1194 1187 1177 1224 1269 1274 1273 1278 1297 1306
624 722 747 744 765 768 797 780 971 1027 1068 1168 1191 1246 1460 1583 1556 1649 1712 1750 1665 1526 1429 1365 1308 1154 943 854 921 997 1057 1100 1154 1191 1215 1223 1224 1248 1309 1364 1387 1401
569 718 813 776 771 748 693 620 601 640 729 842 1032 1104 1224 1346 1465 1473 1483 1492 1494 1598 1664 1645 1665 1602 1418 1140 954 950 915 973 1002 1008 1038 1068 1101 1151 1207 1231 1279 1335
417 412 506 592 643 681 746 699 571 482 484 500 634 746 839 930 1203 1345 1390 1386 1355 1294 1288 1321 1284 1338 1333 1494 1553 1455 1259 1111 996 917 911 966 1019 1058 1113 1148 1172 1184
388 407 435 442 418 431 463 491 494 474 426 442 502 503 567 728 735 935 1130 1140 1254 1296 1275 1219 1114 1152 1180 1208 1292 1388 1513 1516 1363 1229 1136 1064 1031 1006 964 926 938 1017
337 418 464 469 445 432 439 452 458 433 427 410 419 419 430 520 598 697 758 848 860 868 1101 1224 1234 1103 1030 945 956 972 1129 1228 1290 1354 1373 1365 1348 1338 1316 1303 1284 1248
270 271 298 359 400 413 399 375 363 352 360 399 447 434 411 405 513 604 690 711 715 756 862 1004 1095 1120 1067 994 871 778 780 878 1110 1112 1105 1192 1261 1300 1328 1347 1336 1333
Wind_Speed
9 7 5 5 5 6 7 8 8 7 6 5 5 5 6 7 9 8 8 8 7 6 7 8 8 8 8 7 8 8 8 7 8 9 9 9 10 10 12 13 12 11
11 10 9 8 8 8 9 9 9 8 7 7 6 6 7 8 8 8 9 8 8 7 7 7 7 7 7 6 7 8 8 9 9 10 10 10 10 10 10 11 12 11
12 13 12 10 8 8 8 10 11 10 9 8 8 7 7 8 8 9 9 9 8 8 8 7 7 7 6 7 7 7 7 8 8 9 10 10 11 11 11 11 11 11
13 13 14 13 12 10 10 10 10 11 11 10 8 6 7 7 8 8 8 8 8 8 8 8 7 7 6 6 7 7 7 7 7 9 10 11 11 11 12 12 12 12
13 15 15 15 13 11 11 9 8 8 9 7 8 8 7 8 8 8 7 7 7 7 7 7 7 6 6 6 6 7 7 7 8 9 9 10 11 11 11 12 13 13
14 14 14 13 12 10 8 7 6 7 6 8 7 9 8 7 8 7 7 6 7 6 6 7 6 6 6 6 6 7 7 7 8 9 9 9 10 11 11 12 13 13
12 14 14 14 12 10 8 6 6 7 7 7 10 9 9 8 7 7 7 7 7 7 6 6 6 6 7 8 7 7 7 7 8 8 9 10 10 11 11 11 11 12
17 17 17 17 16 15 12 10 9 8 8 9 9 9 10 8 7 7 8 8 8 8 7 7 7 7 7 8 7 7 7 8 8 8 8 9 11 11 12 12 12 12
16 14 14 15 16 16 14 12 10 10 10 9 9 9 10 9 8 7 7 8 8 8 8 8 7 7 8 9 8 8 7 8 8 9 8 8 9 9 10 12 13 13
17 15 14 14 16 17 16 14 12 11 12 11 11 12 11 10 10 9 9 8 8 9 9 9 8 8 7 8 8 8 8 8 9 10 10 10 9 9 10 12 12 13
19 18 16 16 15 16 17 17 16 15 14 12 11 11 13 13 13 12 11 10 8 8 9 9 9 9 8 7 8 9 9 10 10 11 11 11 10 10 10 11 12 12
20 20 20 17 15 15 16 18 18 17 16 16 14 11 11 12 12 13 13 10 9 7 7 8 9 10 9 8 8 9 10 10 11 11 11 11 11 11 11 12 11 11
22 21 21 20 17 15 17 18 18 18 17 16 16 15 13 12 12 12 13 12 10 9 7 7 8 10 10 9 9 10 10 11 11 11 12 12 12 12 12 12 12 12
24 24 21 20 20 19 18 18 19 20 18 16 16 15 15 15 13 12 12 12 11 11 9 8 8 10 10 10 11 10 11 11 11 11 12 13 13 13 13 13 13 13
27 25 24 23 22 21 20 20 21 22 21 20 18 17 16 16 16 15 13 12 12 12 12 11 9 9 11 11 11 11 11 11 11 11 12 13 14 14 14 14 14 14
25 24 26 26 25 26 26 26 25 25 23 22 21 19 18 17 17 17 15 13 12 12 13 13 12 12 10 7 10 12 12 12 12 12 13 13 14 14 15 16 15 15
25 25 25 27 26 27 27 27 26 27 26 25 25 23 21 19 19 19 19 16 14 13 14 14 13 13 8 8 8 8 13 15 14 14 15 14 14 15 14 15 16 16
20 22 25 26 26 26 27 28 30 30 29 27 26 25 23 22 20 20 21 21 19 17 15 15 15 12 9 10 11 10 13 15 16 16 16 16 15 15 15 16 16 16
18 19 21 25 26 27 28 29 30 30 29 28 27 26 25 25 23 24 23 23 23 21 18 17 18 14 12 12 13 13 13 14 16 17 17 16 17 16 17 17 18 18
19 18 18 21 23 24 25 27 29 30 29 28 27 29 30 29 29 28 27 26 24 23 23 24 23 22 18 15 15 15 14 16 17 16 16 16 17 17 18 18 19 19
21 19 17 17 18 19 22 25 27 29 31 30 30 30 32 33 33 32 30 28 26 25 25 26 26 30 26 25 24 22 20 20 20 20 19 18 18 19 19 18 19 20
23 21 20 19 19 18 19 20 22 25 28 30 31 32 33 34 35 35 35 33 30 28 27 27 27 30 29 26 24 24 25 24 23 22 20 20 20 20 20 20 20 20
27 27 27 26 24 24 24 22 20 19 21 23 27 28 30 29 30 31 32 33 33 32 31 30 30 30 29 27 26 27 27 25 24 23 21 21 20 21 22 22 21 21
29 30 30 29 28 28 26 24 22 20 19 19 19 21 24 24 23 24 25 28 31 33 33 33 32 33 34 32 30 28 29 26 24 21 20 20 21 22 23 23 22 18
32 32 32 31 31 30 28 27 24 22 22 21 19 19 19 20 21 19 19 21 27 30 32 31 31 32 34 32 30 28 31 30 26 22 21 21 22 22 23 23 23 23
35 34 32 32 32 31 30 28 26 25 25 24 23 22 21 20 19 19 18 19 23 26 27 28 29 29 30 31 32 30 30 30 28 24 21 21 22 22 23 24 25 25
Wind_Direction
216 217 229 237 235 221 219 209 202 206 201 204 198 187 194 181 186 175 167 169 161 158 157 153 150 146 149 162 176 178 185 186 179 180 179 174 163 161 157 161 166 163
212 213 214 221 223 226 218 211 213 212 210 211 205 206 200 203 195 190 181 173 170 161 165 161 155 152 155 167 181 182 181 191 185 192 193 183 168 173 162 164 165 166
212 212 216 218 221 223 229 217 208 209 216 214 215 215 211 211 207 202 193 186 176 168 173 172 166 161 162 168 184 185 180 186 183 192 200 193 187 177 172 174 172 172
212 211 214 215 215 215 223 228 214 205 210 219 222 222 226 224 222 214 205 197 192 181 178 184 173 174 175 170 183 184 181 182 189 202 198 198 197 193 181 184 178 178
223 214 212 215 216 218 224 232 231 222 219 220 224 228 233 234 237 228 224 214 211 198 197 192 191 188 193 186 190 189 189 180 190 207 202 192 193 201 195 196 187 184
228 223 218 220 222 231 239 245 246 245 229 223 224 232 236 242 247 249 248 245 235 225 215 213 213 203 212 210 207 198 196 189 188 206 201 195 189 201 206 205 200 192
240 228 220 216 216 224 240 248 246 241 234 225 224 224 231 235 242 250 258 259 254 247 240 234 232 224 222 224 224 215 203 198 200 210 203 193 196 187 200 209 210 206
240 231 224 217 209 208 212 220 224 228 225 220 221 217 228 229 234 238 250 260 258 256 251 245 240 239 240 239 234 227 216 215 212 217 213 199 201 193 191 202 215 216
247 243 235 225 219 215 213 211 216 218 219 220 216 211 219 223 226 234 247 259 260 258 257 252 250 246 246 252 247 242 232 222 224 228 226 214 209 201 198 203 209 215
242 241 242 233 224 219 218 217 221 223 224 220 213 209 209 213 219 225 235 250 263 265 265 261 259 255 252 253 255 253 246 235 228 230 231 227 222 215 211 211 209 210
237 237 237 233 229 222 217 217 216 216 218 221 223 218 211 210 211 219 225 234 250 267 277 276 272 269 264 258 254 252 251 244 237 233 231 230 229 227 223 221 215 214
234 234 233 231 224 219 217 215 217 219 215 210 216 222 222 220 220 221 224 226 230 244 268 280 280 275 272 269 266 259 255 250 244 241 238 235 232 231 230 231 228 224
236 234 232 228 222 217 217 217 216 218 221 216 212 212 221 227 228 232 231 227 222 227 238 260 275 278 274 268 263 260 261 258 252 247 244 242 240 238 237 237 236 233
230 231 231 226 224 222 220 221 221 220 222 223 222 213 212 218 224 231 235 241 233 227 223 236 255 265 268 266 262 263 262 260 258 253 251 250 247 245 243 242 242 241
212 220 224 224 227 227 224 223 224 221 219 220 224 222 218 219 221 222 228 237 242 241 229 223 233 249 259 265 266 263 262 260 261 258 256 254 252 251 250 250 246 245
211 210 219 222 225 225 223 221 222 222 219 218 219 224 224 224 225 225 227 233 243 249 249 240 231 234 247 284 280 267 265 263 260 259 256 255 255 253 252 255 256 255
225 217 219 223 224 225 223 223 223 223 222 220 220 222 224 226 231 230 230 232 238 249 257 255 247 241 255 272 281 285 262 257 259 259 258 255 255 256 255 255 255 259
234 229 225 226 225 223 225 228 232 231 227 224 223 222 225 230 234 237 235 234 234 237 245 252 253 255 265 266 266 263 256 251 252 254 256 257 255 255 253 252 251 251
232 231 231 230 228 226 224 227 233 235 233 228 224 224 227 229 232 237 238 237 235 236 239 242 245 250 258 262 267 271 273 262 248 251 253 254 255 254 253 252 250 247
239 237 234 231 228 229 232 230 229 232 234 231 228 226 227 228 229 231 233 235 236 236 236 236 237 235 244 245 247 255 261 261 246 246 246 248 252 255 253 253 253 252
235 238 239 238 236 234 235 235 234 232 234 233 231 230 228 227 228 228 230 234 235 238 240 238 239 234 237 239 242 245 245 252 245 244 242 242 245 248 250 251 253 256
232 232 235 238 238 236 239 241 238 235 235 237 237 234 232 229 229 230 228 228 232 237 242 245 247 242 242 242 240 239 245 245 245 246 244 242 243 247 250 252 253 255
236 237 237 237 237 235 234 235 237 238 240 242 241 241 239 235 231 230 228 228 230 236 241 247 249 245 243 244 243 240 246 243 243 243 244 244 245 249 252 254 256 258
241 243 241 239 240 237 235 237 238 239 240 247 246 243 245 245 240 239 235 230 230 234 239 245 248 247 244 245 248 247 252 251 249 248 246 246 243 246 249 251 253 249
248 247 244 242 241 239 239 238 237 236 236 238 240 243 246 250 250 250 250 249 244 240 234 238 246 248 249 250 251 250 251 254 252 250 247 247 246 245 248 251 250 252
248 246 245 243 242 241 242 243 243 240 236 235 235 238 240 243 245 252 255 254 257 259 258 251 247 248 250 251 257 253 253 257 257 256 255 254 253 252 249 249 251 249